QPF
0.00 0.00 0.00 0.00 0.00 0.00 0.00 0.00 0.00 0.00 0.00 0.00 0.00 0.00 0.00 0.00 0.00 0.00 0.00 0.00 0.00 0.00 0.00 0.00 0.00 0.00 0.01 0.01 0.01 0.02 0.02 0.02 0.02 0.02 0.03 0.03 0.04 0.04
0.00 0.00 0.00 0.00 0.00 0.00 0.00 0.00 0.00 0.00 0.00 0.00 0.00 0.00 0.00 0.00 0.00 0.00 0.00 0.00 0.00 0.00 0.00 0.00 0.00 0.00 0.01 0.01 0.01 0.02 0.02 0.02 0.03 0.03 0.04 0.04 0.05 0.05
0.00 0.00 0.00 0.00 0.00 0.00 0.00 0.00 0.00 0.00 0.00 0.00 0.00 0.00 0.00 0.00 0.00 0.00 0.00 0.00 0.00 0.00 0.00 0.00 0.00 0.00 0.01 0.01 0.01 0.02 0.02 0.03 0.03 0.04 0.04 0.04 0.05 0.05
0.00 0.00 0.00 0.00 0.00 0.00 0.00 0.00 0.00 0.00 0.01 0.00 0.00 0.00 0.00 0.00 0.00 0.00 0.00 0.00 0.00 0.00 0.00 0.00 0.00 0.01 0.01 0.01 0.01 0.02 0.02 0.02 0.03 0.03 0.03 0.04 0.04 0.04
0.00 0.00 0.00 0.00 0.00 0.01 0.01 0.01 0.01 0.01 0.01 0.01 0.00 0.00 0.00 0.00 0.00 0.00 0.00 0.00 0.00 0.00 0.00 0.00 0.00 0.00 0.01 0.01 0.01 0.01 0.02 0.02 0.02 0.02 0.02 0.03 0.03 0.04
0.00 0.00 0.00 0.00 0.00 0.01 0.01 0.01 0.01 0.01 0.01 0.02 0.01 0.00 0.00 0.00 0.00 0.00 0.00 0.00 0.00 0.00 0.00 0.00 0.00 0.00 0.00 0.00 0.01 0.01 0.01 0.01 0.01 0.01 0.02 0.02 0.02 0.03
0.00 0.00 0.00 0.00 0.00 0.01 0.01 0.01 0.01 0.02 0.02 0.02 0.02 0.01 0.01 0.00 0.00 0.00 0.01 0.00 0.00 0.00 0.00 0.00 0.00 0.00 0.00 0.00 0.00 0.00 0.00 0.00 0.01 0.01 0.01 0.02 0.02 0.02
0.00 0.00 0.00 0.00 0.01 0.01 0.02 0.02 0.03 0.03 0.03 0.02 0.02 0.01 0.01 0.00 0.00 0.01 0.02 0.02 0.01 0.00 0.00 0.00 0.00 0.00 0.00 0.00 0.00 0.00 0.00 0.01 0.01 0.01 0.02 0.02 0.03 0.03
0.00 0.00 0.01 0.01 0.01 0.01 0.02 0.04 0.06 0.07 0.06 0.05 0.04 0.01 0.00 0.00 0.01 0.03 0.02 0.02 0.01 0.00 0.01 0.01 0.00 0.00 0.00 0.00 0.00 0.00 0.00 0.01 0.01 0.02 0.02 0.03 0.03 0.03
0.00 0.00 0.00 0.00 0.01 0.01 0.02 0.03 0.03 0.04 0.07 0.10 0.12 0.06 0.02 0.01 0.02 0.03 0.03 0.04 0.02 0.00 0.01 0.01 0.00 0.00 0.00 0.00 0.00 0.00 0.00 0.01 0.01 0.01 0.02 0.03 0.03 0.03
0.00 0.00 0.00 0.01 0.01 0.02 0.05 0.04 0.02 0.01 0.01 0.04 0.08 0.08 0.06 0.04 0.04 0.08 0.10 0.08 0.04 0.01 0.00 0.00 0.00 0.00 0.00 0.00 0.00 0.00 0.00 0.00 0.01 0.01 0.02 0.03 0.03 0.04
0.00 0.00 0.01 0.01 0.01 0.03 0.06 0.06 0.03 0.01 0.01 0.02 0.03 0.04 0.05 0.06 0.06 0.07 0.07 0.06 0.04 0.01 0.00 0.00 0.00 0.01 0.01 0.00 0.00 0.00 0.00 0.00 0.00 0.01 0.01 0.02 0.02 0.03
0.00 0.01 0.01 0.01 0.03 0.04 0.05 0.05 0.03 0.01 0.01 0.02 0.02 0.01 0.01 0.02 0.02 0.03 0.03 0.04 0.03 0.02 0.00 0.00 0.01 0.01 0.02 0.01 0.00 0.00 0.00 0.00 0.00 0.00 0.00 0.00 0.01 0.02
0.01 0.01 0.01 0.01 0.02 0.05 0.07 0.08 0.07 0.06 0.08 0.06 0.03 0.02 0.01 0.01 0.00 0.00 0.01 0.01 0.01 0.01 0.00 0.01 0.02 0.02 0.03 0.02 0.00 0.00 0.00 0.00 0.00 0.00 0.00 0.00 0.01 0.01
0.01 0.01 0.02 0.02 0.03 0.03 0.05 0.07 0.09 0.10 0.12 0.09 0.04 0.01 0.00 0.00 0.01 0.01 0.00 0.00 0.00 0.00 0.00 0.00 0.01 0.02 0.04 0.04 0.01 0.00 0.00 0.00 0.00 0.00 0.01 0.01 0.01 0.01
0.02 0.03 0.03 0.04 0.04 0.03 0.03 0.04 0.06 0.07 0.07 0.06 0.03 0.01 0.01 0.01 0.01 0.01 0.00 0.00 0.00 0.00 0.00 0.00 0.01 0.02 0.04 0.03 0.02 0.01 0.00 0.00 0.00 0.01 0.02 0.02 0.02 0.02
0.02 0.04 0.04 0.05 0.06 0.06 0.04 0.03 0.02 0.04 0.05 0.05 0.03 0.02 0.02 0.01 0.01 0.00 0.00 0.00 0.01 0.00 0.00 0.00 0.00 0.01 0.02 0.03 0.04 0.02 0.01 0.01 0.01 0.02 0.04 0.04 0.02 0.02
0.05 0.06 0.05 0.04 0.05 0.05 0.05 0.03 0.03 0.02 0.02 0.02 0.03 0.02 0.01 0.01 0.01 0.00 0.00 0.01 0.01 0.01 0.00 0.00 0.01 0.02 0.02 0.01 0.01 0.02 0.02 0.02 0.02 0.04 0.05 0.06 0.03 0.02
0.07 0.06 0.04 0.03 0.03 0.03 0.03 0.02 0.02 0.01 0.01 0.02 0.02 0.01 0.01 0.01 0.01 0.00 0.00 0.01 0.01 0.01 0.00 0.00 0.02 0.05 0.05 0.02 0.00 0.01 0.02 0.03 0.03 0.04 0.03 0.05 0.04 0.02
0.04 0.04 0.03 0.02 0.02 0.02 0.02 0.02 0.02 0.02 0.02 0.01 0.01 0.01 0.01 0.01 0.01 0.01 0.01 0.01 0.01 0.01 0.01 0.01 0.02 0.04 0.07 0.04 0.02 0.01 0.01 0.04 0.05 0.05 0.03 0.03 0.03 0.02
0.03 0.03 0.02 0.02 0.02 0.02 0.02 0.02 0.02 0.01 0.01 0.01 0.01 0.01 0.00 0.01 0.01 0.01 0.01 0.01 0.02 0.02 0.02 0.01 0.01 0.02 0.06 0.07 0.04 0.01 0.00 0.01 0.04 0.07 0.08 0.07 0.05 0.03
0.02 0.02 0.02 0.02 0.02 0.02 0.02 0.02 0.01 0.01 0.01 0.01 0.01 0.00 0.00 0.01 0.01 0.01 0.01 0.01 0.01 0.01 0.01 0.01 0.01 0.02 0.05 0.06 0.04 0.01 0.00 0.00 0.01 0.02 0.06 0.08 0.09 0.07
0.02 0.02 0.02 0.02 0.02 0.01 0.01 0.01 0.01 0.01 0.01 0.00 0.00 0.00 0.01 0.01 0.01 0.01 0.01 0.01 0.02 0.02 0.01 0.02 0.01 0.02 0.04 0.05 0.04 0.02 0.01 0.01 0.01 0.02 0.02 0.02 0.03 0.05
MSLP
1014.19 1014.62 1015.06 1015.46 1015.80 1016.04 1016.19 1016.26 1016.26 1016.23 1016.21 1016.21 1016.26 1016.36 1016.50 1016.65 1016.79 1016.91 1016.97 1016.97 1016.91 1016.81 1016.68 1016.54 1016.41 1016.29 1016.21 1016.13 1016.06 1015.99 1015.89 1015.75 1015.57 1015.36 1015.12 1014.87 1014.63 1014.39
1012.78 1013.18 1013.59 1013.98 1014.31 1014.58 1014.76 1014.88 1014.95 1015.01 1015.08 1015.18 1015.33 1015.51 1015.72 1015.93 1016.11 1016.23 1016.29 1016.27 1016.19 1016.06 1015.90 1015.74 1015.60 1015.49 1015.40 1015.34 1015.27 1015.19 1015.07 1014.91 1014.70 1014.45 1014.17 1013.87 1013.59 1013.34
1011.41 1011.74 1012.09 1012.45 1012.77 1013.04 1013.26 1013.43 1013.59 1013.74 1013.92 1014.13 1014.39 1014.67 1014.95 1015.21 1015.42 1015.56 1015.60 1015.56 1015.44 1015.28 1015.09 1014.90 1014.74 1014.62 1014.53 1014.46 1014.38 1014.28 1014.14 1013.95 1013.71 1013.41 1013.09 1012.77 1012.46 1012.19
1010.09 1010.34 1010.63 1010.93 1011.23 1011.51 1011.76 1012.00 1012.23 1012.49 1012.77 1013.09 1013.44 1013.80 1014.15 1014.45 1014.68 1014.81 1014.84 1014.77 1014.62 1014.42 1014.21 1014.00 1013.82 1013.68 1013.58 1013.49 1013.39 1013.27 1013.10 1012.88 1012.60 1012.27 1011.93 1011.58 1011.26 1010.99
1008.82 1008.99 1009.23 1009.50 1009.78 1010.06 1010.34 1010.63 1010.94 1011.27 1011.64 1012.04 1012.47 1012.89 1013.27 1013.60 1013.83 1013.95 1013.96 1013.87 1013.70 1013.48 1013.24 1013.02 1012.82 1012.67 1012.54 1012.43 1012.31 1012.15 1011.95 1011.69 1011.38 1011.04 1010.68 1010.33 1010.01 1009.74
1007.62 1007.74 1007.93 1008.18 1008.45 1008.74 1009.05 1009.37 1009.73 1010.12 1010.54 1010.99 1011.45 1011.89 1012.29 1012.61 1012.83 1012.94 1012.94 1012.84 1012.66 1012.44 1012.20 1011.97 1011.77 1011.60 1011.45 1011.31 1011.15 1010.95 1010.71 1010.42 1010.08 1009.72 1009.36 1009.02 1008.72 1008.46
1006.50 1006.60 1006.77 1006.99 1007.26 1007.55 1007.87 1008.22 1008.59 1009.00 1009.43 1009.89 1010.35 1010.78 1011.17 1011.48 1011.69 1011.80 1011.80 1011.71 1011.54 1011.34 1011.11 1010.90 1010.69 1010.51 1010.33 1010.15 1009.94 1009.70 1009.41 1009.08 1008.72 1008.35 1007.99 1007.66 1007.38 1007.15
1005.48 1005.56 1005.72 1005.93 1006.19 1006.48 1006.79 1007.13 1007.50 1007.89 1008.31 1008.74 1009.17 1009.58 1009.94 1010.23 1010.44 1010.55 1010.57 1010.51 1010.39 1010.22 1010.03 1009.83 1009.63 1009.42 1009.21 1008.98 1008.72 1008.41 1008.07 1007.70 1007.31 1006.93 1006.57 1006.26 1006.00 1005.78
1004.55 1004.62 1004.76 1004.96 1005.21 1005.48 1005.77 1006.08 1006.41 1006.77 1007.14 1007.53 1007.92 1008.30 1008.64 1008.92 1009.14 1009.28 1009.34 1009.33 1009.26 1009.14 1008.99 1008.81 1008.61 1008.39 1008.13 1007.84 1007.50 1007.13 1006.72 1006.30 1005.88 1005.48 1005.12 1004.82 1004.56 1004.36
1003.69 1003.75 1003.87 1004.05 1004.26 1004.50 1004.75 1005.01 1005.29 1005.60 1005.93 1006.28 1006.63 1006.99 1007.32 1007.62 1007.86 1008.05 1008.17 1008.23 1008.22 1008.16 1008.04 1007.88 1007.67 1007.41 1007.10 1006.73 1006.32 1005.87 1005.39 1004.91 1004.45 1004.02 1003.65 1003.33 1003.07 1002.86
1002.88 1002.92 1003.02 1003.16 1003.33 1003.51 1003.70 1003.92 1004.15 1004.41 1004.70 1005.02 1005.36 1005.71 1006.06 1006.40 1006.69 1006.94 1007.13 1007.25 1007.30 1007.28 1007.19 1007.03 1006.79 1006.49 1006.11 1005.67 1005.18 1004.65 1004.10 1003.56 1003.04 1002.57 1002.16 1001.81 1001.52 1001.28
1002.12 1002.13 1002.18 1002.27 1002.38 1002.51 1002.65 1002.81 1003.00 1003.22 1003.49 1003.81 1004.16 1004.54 1004.93 1005.31 1005.67 1005.98 1006.23 1006.41 1006.50 1006.50 1006.41 1006.23 1005.96 1005.60 1005.15 1004.64 1004.07 1003.46 1002.85 1002.24 1001.67 1001.14 1000.68 1000.28 999.93 999.62
1001.38 1001.36 1001.37 1001.40 1001.45 1001.52 1001.61 1001.73 1001.89 1002.10 1002.38 1002.71 1003.10 1003.52 1003.97 1004.41 1004.82 1005.18 1005.47 1005.67 1005.77 1005.77 1005.66 1005.44 1005.12 1004.70 1004.20 1003.62 1002.98 1002.31 1001.64 1000.97 1000.34 999.74 999.21 998.73 998.30 997.91
1000.68 1000.62 1000.59 1000.57 1000.57 1000.59 1000.64 1000.73 1000.89 1001.11 1001.41 1001.78 1002.21 1002.69 1003.18 1003.67 1004.12 1004.51 1004.81 1005.01 1005.09 1005.05 1004.89 1004.62 1004.24 1003.77 1003.21 1002.58 1001.90 1001.18 1000.46 999.74 999.04 998.37 997.75 997.17 996.64 996.14
1000.02 999.94 999.87 999.82 999.78 999.77 999.80 999.89 1000.05 1000.30 1000.63 1001.05 1001.53 1002.05 1002.58 1003.09 1003.55 1003.93 1004.20 1004.36 1004.38 1004.28 1004.06 1003.73 1003.29 1002.77 1002.17 1001.51 1000.80 1000.05 999.29 998.52 997.76 997.01 996.29 995.60 994.95 994.35
999.40 999.32 999.24 999.17 999.12 999.10 999.13 999.23 999.41 999.69 1000.06 1000.52 1001.03 1001.58 1002.12 1002.62 1003.05 1003.38 1003.59 1003.67 1003.62 1003.44 1003.14 1002.74 1002.26 1001.69 1001.07 1000.40 999.67 998.91 998.13 997.31 996.48 995.65 994.82 994.01 993.25 992.53
998.82 998.76 998.70 998.64 998.60 998.59 998.64 998.76 998.97 999.28 999.68 1000.16 1000.69 1001.23 1001.76 1002.22 1002.58 1002.83 1002.95 1002.93 1002.78 1002.50 1002.13 1001.67 1001.14 1000.56 999.93 999.25 998.53 997.76 996.94 996.08 995.19 994.26 993.33 992.41 991.53 990.71
998.27 998.26 998.24 998.21 998.20 998.22 998.30 998.46 998.70 999.03 999.45 999.93 1000.45 1000.96 1001.43 1001.82 1002.09 1002.24 1002.25 1002.12 1001.87 1001.51 1001.06 1000.56 1000.00 999.40 998.76 998.08 997.36 996.57 995.73 994.82 993.85 992.85 991.81 990.79 989.82 988.92
997.75 997.79 997.83 997.85 997.89 997.95 998.07 998.26 998.53 998.88 999.30 999.77 1000.25 1000.70 1001.09 1001.39 1001.56 1001.60 1001.50 1001.27 1000.92 1000.48 999.98 999.44 998.85 998.25 997.61 996.93 996.19 995.38 994.50 993.53 992.49 991.40 990.28 989.18 988.14 987.19
997.23 997.34 997.43 997.52 997.60 997.72 997.88 998.10 998.39 998.75 999.15 999.59 1000.02 1000.41 1000.71 1000.91 1000.98 1000.91 1000.71 1000.39 999.97 999.47 998.93 998.36 997.76 997.14 996.49 995.80 995.04 994.19 993.26 992.23 991.12 989.96 988.77 987.61 986.53 985.58
996.72 996.89 997.03 997.17 997.32 997.48 997.68 997.93 998.23 998.58 998.97 999.36 999.73 1000.04 1000.26 1000.36 1000.34 1000.18 999.90 999.51 999.04 998.51 997.94 997.35 996.74 996.11 995.45 994.72 993.92 993.03 992.04 990.95 989.78 988.56 987.33 986.14 985.06 984.12
996.22 996.43 996.63 996.82 997.01 997.21 997.45 997.71 998.02 998.36 998.71 999.05 999.36 999.59 999.73 999.75 999.65 999.42 999.09 998.66 998.16 997.61 997.04 996.44 995.82 995.17 994.48 993.72 992.87 991.92 990.87 989.73 988.50 987.25 986.01 984.83 983.77 982.88
995.76 996.00 996.23 996.46 996.68 996.92 997.17 997.45 997.75 998.06 998.37 998.66 998.90 999.06 999.13 999.08 998.93 998.66 998.29 997.85 997.34 996.79 996.22 995.62 994.99 994.32 993.60 992.80 991.90 990.90 989.79 988.60 987.35 986.09 984.86 983.72 982.72 981.90
Thickness
5507 5500 5494 5490 5481 5474 5466 5457 5448 5452 5465 5460 5449 5446 5439 5432 5428 5424 5421 5418 5415 5413 5411 5409 5408 5407 5407 5407 5407 5407 5408 5409 5411 5412 5415 5417 5420 5424
5500 5493 5488 5482 5474 5466 5458 5450 5442 5438 5446 5451 5442 5433 5427 5422 5416 5411 5408 5404 5402 5400 5398 5396 5395 5394 5393 5392 5392 5392 5393 5394 5396 5398 5400 5402 5405 5407
5492 5486 5481 5473 5466 5458 5450 5443 5436 5428 5430 5440 5426 5420 5413 5407 5402 5398 5395 5391 5388 5386 5385 5383 5382 5380 5379 5378 5378 5378 5379 5379 5381 5382 5384 5386 5388 5391
5484 5477 5473 5464 5458 5450 5443 5437 5430 5423 5418 5422 5415 5405 5400 5395 5389 5384 5381 5378 5375 5373 5371 5370 5369 5367 5366 5365 5364 5364 5364 5364 5364 5366 5367 5369 5371 5372
5475 5469 5464 5455 5450 5443 5436 5430 5423 5416 5409 5406 5405 5395 5389 5382 5376 5372 5368 5365 5362 5361 5359 5358 5356 5354 5353 5352 5350 5349 5349 5349 5349 5349 5349 5350 5352 5353
5466 5460 5455 5448 5443 5435 5428 5422 5414 5406 5399 5394 5392 5384 5377 5370 5362 5359 5356 5353 5350 5348 5346 5345 5343 5341 5340 5338 5336 5335 5334 5333 5332 5332 5332 5333 5333 5334
5454 5449 5445 5439 5434 5426 5419 5411 5403 5396 5389 5383 5379 5373 5367 5357 5352 5347 5343 5341 5339 5335 5333 5331 5329 5328 5326 5322 5320 5319 5317 5317 5316 5316 5316 5316 5317 5317
5442 5438 5433 5428 5425 5421 5416 5409 5398 5387 5381 5374 5370 5364 5358 5349 5341 5334 5329 5326 5327 5326 5320 5322 5317 5317 5314 5309 5306 5304 5303 5302 5302 5301 5301 5301 5301 5302
5432 5427 5423 5419 5414 5409 5404 5401 5396 5389 5380 5367 5362 5357 5348 5340 5330 5323 5319 5316 5318 5315 5307 5311 5307 5306 5303 5299 5297 5294 5292 5291 5289 5289 5288 5288 5287 5287
5423 5418 5413 5409 5404 5397 5392 5387 5382 5377 5370 5363 5357 5349 5339 5330 5322 5315 5310 5306 5306 5303 5296 5297 5298 5295 5294 5291 5287 5283 5281 5279 5278 5277 5277 5276 5275 5273
5412 5408 5403 5400 5395 5390 5384 5378 5371 5366 5359 5354 5347 5340 5332 5324 5314 5305 5300 5296 5298 5298 5289 5284 5286 5283 5284 5283 5279 5273 5270 5268 5267 5266 5265 5264 5262 5259
5400 5396 5394 5390 5386 5381 5375 5369 5363 5356 5347 5340 5335 5329 5323 5316 5310 5302 5294 5288 5287 5287 5282 5272 5271 5264 5270 5277 5271 5265 5260 5257 5254 5253 5252 5251 5248 5244
5390 5386 5382 5380 5379 5375 5369 5362 5356 5347 5338 5330 5323 5316 5310 5304 5298 5292 5285 5278 5275 5274 5269 5259 5257 5252 5251 5263 5264 5258 5252 5249 5245 5244 5242 5240 5237 5232
5381 5377 5373 5372 5369 5366 5360 5355 5348 5340 5330 5322 5314 5308 5301 5296 5290 5283 5276 5269 5265 5262 5257 5248 5244 5241 5240 5246 5253 5252 5246 5240 5236 5236 5234 5231 5228 5224
5371 5370 5367 5364 5360 5356 5351 5346 5339 5331 5323 5316 5308 5302 5295 5288 5280 5272 5266 5259 5255 5252 5247 5240 5234 5232 5229 5232 5238 5240 5238 5236 5230 5228 5226 5223 5220 5215
5360 5359 5358 5355 5349 5344 5339 5333 5327 5320 5313 5307 5300 5292 5284 5276 5269 5262 5256 5250 5246 5246 5240 5233 5228 5223 5223 5223 5224 5229 5227 5225 5226 5219 5216 5216 5214 5209
5351 5347 5343 5339 5336 5332 5327 5321 5315 5309 5303 5296 5289 5282 5275 5268 5262 5254 5247 5242 5237 5237 5235 5229 5223 5219 5217 5215 5216 5219 5219 5219 5217 5212 5209 5211 5212 5207
5349 5343 5337 5332 5327 5323 5318 5312 5305 5299 5292 5286 5279 5272 5266 5259 5253 5246 5239 5233 5231 5229 5227 5223 5217 5215 5215 5216 5212 5212 5214 5212 5211 5207 5203 5204 5210 5210
5343 5337 5331 5325 5320 5315 5309 5302 5296 5290 5283 5276 5269 5262 5255 5249 5244 5238 5233 5228 5225 5224 5222 5217 5212 5208 5211 5218 5218 5210 5207 5207 5205 5205 5202 5202 5208 5214
5334 5329 5323 5318 5313 5306 5300 5294 5287 5280 5274 5267 5260 5253 5247 5241 5236 5232 5228 5224 5221 5220 5219 5215 5209 5205 5204 5209 5215 5213 5204 5202 5203 5204 5205 5206 5211 5216
5326 5322 5316 5310 5305 5299 5292 5286 5279 5273 5266 5259 5252 5246 5240 5234 5230 5227 5223 5221 5219 5217 5215 5214 5210 5207 5204 5203 5209 5216 5211 5205 5204 5205 5208 5210 5217 5223
5320 5315 5309 5303 5297 5291 5284 5278 5272 5265 5259 5252 5246 5240 5235 5230 5226 5222 5219 5216 5215 5212 5211 5211 5208 5204 5201 5201 5206 5212 5215 5214 5212 5213 5215 5218 5221 5233
5315 5309 5303 5297 5291 5284 5277 5271 5265 5259 5253 5247 5242 5236 5231 5227 5223 5220 5217 5214 5211 5210 5209 5209 5207 5204 5204 5203 5206 5210 5213 5217 5219 5222 5228 5233 5238 5244